Flag for Austria Weather past 2 weeks in Krems, Lower Austria, Austria

Now
57 °F

Partly sunny.


Feels Like: 57 °F
Forecast: 54 / 84 °F
Wind: 1 mph from North

Location: Tulln Airport

Current Time: Jun 30, 2015 at 8:10:59 AM

Latest Report: Jun 30, 2015 at 6:50 AM


Visibility: 31 mi

Pressure: 30.18 "Hg

Humidity: 94%

Dew point: 55 °F

Location of KremsLocation

Historic Weather in Krems — Graph

°F

Krems temperature yesterday

Maximum temperature yesterday: 77 °F (at 4:50 PM)
Minimum temperature yesterday: 52 °F (at 5:50 AM)
Average temperature yesterday: 68 °F

Past Weeks' High & Low Weather Summary

 TemperatureHumidityPressure
High81 °F (Jun 26, 3:50 PM)100% (Jun 15, 2:50 PM)30.27 "Hg (Jun 15, 2:50 PM)
Low48 °F (Jun 25, 5:50 AM)34% (Jun 26, 3:50 PM)29.80 "Hg (Jun 15, 6:50 AM)
Average64 °F69%30.06 "Hg
* Reported Jun 15 6:50 AM — Jun 30 6:50 AM, Krems, Weather by CustomWeather, © 2015

Note: Actual official high and low records may vary slightly from our data, if they occured in-between our weather recording intervals... More about our weather records

Advertising

Krems weather history for previous 24 hours

 ConditionsComfort  
Time TempWeatherWind HumidityBarometerVisibility
6:50 AM
Tue, Jun 30
57 °FPartly sunny.1 mph94%30.18 "Hg31 mi
5:50 AM54 °FPassing clouds.1 mph100%30.18 "Hg25 mi
10:50 PM
Mon, Jun 29
61 °FPassing clouds.2 mph83%30.18 "Hg25 mi
9:50 PM64 °FPassing clouds.2 mph78%30.15 "Hg25 mi
8:50 PM68 °FScattered clouds.2 mph69%30.15 "Hg25 mi
7:50 PM73 °FPassing clouds.5 mph50%30.12 "Hg31 mi
6:50 PM75 °FPassing clouds.6 mph47%30.12 "Hg31 mi
5:50 PM77 °FPassing clouds.6 mph44%30.12 "Hg31 mi
4:50 PM77 °FScattered clouds.5 mph47%30.15 "Hg31 mi
3:50 PM75 °FScattered clouds.2 mph44%30.15 "Hg31 mi
2:50 PM73 °FPartly sunny.3 mph53%30.15 "Hg31 mi
1:50 PM72 °FPartly sunny.3 mph53%30.18 "Hg31 mi
12:50 PM70 °FBroken clouds.3 mph57%30.18 "Hg37 mi
11:50 AM68 °FPartly sunny.3 mph64%30.18 "Hg37 mi
10:50 AM66 °FPartly sunny.5 mph68%30.21 "Hg37 mi
9:50 AM68 °FScattered clouds.2 mph60%30.18 "Hg37 mi
8:50 AM63 °FPartly sunny.2 mph73%30.18 "Hg37 mi
Weather by CustomWeather, © 2015

See weather overviewHow to use our weather pages